Time,TemperatureF,DewpointF,PressureIn,WindDirection,WindDirectionDegrees,WindSpeedMPH,WindSpeedGustMPH,Humidity,HourlyPrecipIn,Conditions,Clouds,dailyrainin,SoftwareType,DateUTC
2013-06-04 08:00:00,65.0,57.7,29.98,SSW,197,0.0,3.0,77,0.00,CLR,,0.00,WeatherDisplay:10.37,2013-06-04 06:00:00,
2013-06-04 08:10:00,64.5,58.2,29.98,SE,124,3.0,5.0,80,0.00,CLR,,0.00,WeatherDisplay:10.37,2013-06-04 06:10:00,
2013-06-04 08:30:00,63.4,58.5,29.98,SSE,153,2.0,5.0,84,0.00,CLR,,0.00,WeatherDisplay:10.37,2013-06-04 06:30:00,
2013-06-04 08:40:00,62.9,58.3,29.99,SE,133,3.0,6.0,85,0.00,CLR,,0.00,WeatherDisplay:10.37,2013-06-04 06:40:00,
2013-06-04 08:50:00,62.6,58.4,29.99,ESE,113,2.0,6.0,86,0.00,CLR,,0.00,WeatherDisplay:10.37,2013-06-04 06:50:00,
2013-06-04 09:00:00,62.5,58.5,29.99,SE,129,2.0,4.0,87,0.00,CLR,,0.00,WeatherDisplay:10.37,2013-06-04 07:00:00,
2013-06-04 09:10:00,62.7,58.8,29.99,SE,144,2.0,4.0,87,0.00,CLR,,0.00,WeatherDisplay:10.37,2013-06-04 07:10:00,
2013-06-04 09:20:00,62.4,58.5,29.99,ESE,108,5.0,6.0,87,0.00,CLR,,0.00,WeatherDisplay:10.37,2013-06-04 07:20:00,
2013-06-04 09:30:00,62.7,58.8,29.99,ESE,105,5.0,5.0,87,0.00,CLR,,0.00,WeatherDisplay:10.37,2013-06-04 07:30:00,
2013-06-04 09:40:00,62.8,58.6,29.99,ESE,117,3.0,6.0,86,0.00,CLR,,0.00,WeatherDisplay:10.37,2013-06-04 07:40:00,
2013-06-04 09:50:00,63.5,58.9,29.99,ESE,111,2.0,5.0,85,0.00,CLR,,0.00,WeatherDisplay:10.37,2013-06-04 07:50:00,
2013-06-04 10:00:00,63.6,59.3,29.99,ESE,118,1.0,4.0,86,0.00,CLR,,0.00,WeatherDisplay:10.37,2013-06-04 08:00:00,
2013-06-04 10:10:00,63.3,58.7,29.99,ESE,113,2.0,5.0,85,0.00,CLR,,0.00,WeatherDisplay:10.37,2013-06-04 08:10:00,
2013-06-04 10:20:00,63.7,58.4,29.99,SE,128,3.0,5.0,83,0.00,CLR,,0.00,WeatherDisplay:10.37,2013-06-04 08:20:00,
2013-06-04 10:30:00,64.6,59.3,29.99,SSE,165,2.0,5.0,83,0.00,CLR,,0.00,WeatherDisplay:10.37,2013-06-04 08:30:00,
2013-06-04 10:40:00,65.6,58.9,29.99,South,187,1.0,5.0,79,0.00,CLR,,0.00,WeatherDisplay:10.37,2013-06-04 08:40:00,
2013-06-04 10:50:00,66.3,59.6,29.99,SW,219,1.0,3.0,79,0.00,CLR,,0.00,WeatherDisplay:10.37,2013-06-04 08:50:00,
2013-06-04 11:00:00,67.6,59.4,29.99,NW,325,0.0,1.0,75,0.00,CLR,,0.00,WeatherDisplay:10.37,2013-06-04 09:00:00,
2013-06-04 11:10:00,67.7,59.8,30.00,ENE,60,1.0,2.0,76,0.00,CLR,,0.00,WeatherDisplay:10.37,2013-06-04 09:10:00,
2013-06-04 11:20:00,68.2,59.6,29.99,North,2,2.0,4.0,74,0.00,CLR,,0.00,WeatherDisplay:10.37,2013-06-04 09:20:00,
2013-06-04 11:30:00,68.5,60.3,29.99,SSW,199,1.0,5.0,75,0.00,CLR,,0.00,WeatherDisplay:10.37,2013-06-04 09:30:00,
2013-06-04 11:40:00,67.2,59.4,29.99,SSE,162,2.0,6.0,76,0.00,CLR,,0.00,WeatherDisplay:10.37,2013-06-04 09:40:00,
2013-06-04 11:50:00,68.0,59.4,29.99,SSW,207,1.0,4.0,74,0.00,CLR,,0.00,WeatherDisplay:10.37,2013-06-04 09:50:00,
2013-06-04 12:00:00,68.3,58.9,29.99,WSW,240,1.0,8.0,72,0.00,CLR,,0.00,WeatherDisplay:10.37,2013-06-04 10:00:00,
2013-06-04 12:10:00,68.8,58.7,29.99,WSW,240,5.0,8.0,70,0.00,CLR,,0.00,WeatherDisplay:10.37,2013-06-04 10:10:00,
2013-06-04 12:20:00,67.7,58.4,29.99,West,259,3.0,8.0,72,0.00,CLR,,0.00,WeatherDisplay:10.37,2013-06-04 10:20:00,
2013-06-04 12:30:00,67.5,58.1,29.99,West,266,6.0,10.0,72,0.00,CLR,,0.00,WeatherDisplay:10.37,2013-06-04 10:30:00,
2013-06-04 12:40:00,67.3,58.3,29.99,WSW,250,2.0,10.0,73,0.00,CLR,,0.00,WeatherDisplay:10.37,2013-06-04 10:40:00,
2013-06-04 12:50:00,66.7,57.8,29.98,WSW,248,6.0,12.0,73,0.00,CLR,,0.00,WeatherDisplay:10.37,2013-06-04 10:50:00,
2013-06-04 13:00:00,66.3,58.1,29.98,West,267,5.0,12.0,75,0.00,CLR,,0.00,WeatherDisplay:10.37,2013-06-04 11:00:00,
2013-06-04 13:10:00,66.6,58.4,29.98,West,281,5.0,9.0,75,0.00,CLR,,0.00,WeatherDisplay:10.37,2013-06-04 11:10:00,
2013-06-04 13:20:00,66.6,58.8,29.98,West,274,5.0,10.0,76,0.00,CLR,,0.00,WeatherDisplay:10.37,2013-06-04 11:20:00,
2013-06-04 13:30:00,66.8,59.0,29.98,West,259,3.0,12.0,76,0.00,CLR,,0.00,WeatherDisplay:10.37,2013-06-04 11:30:00,
2013-06-04 13:40:00,67.4,58.8,29.98,WNW,291,6.0,7.0,74,0.00,CLR,,0.00,WeatherDisplay:10.37,2013-06-04 11:40:00,
2013-06-04 13:50:00,67.8,57.7,29.98,WNW,287,5.0,9.0,70,0.00,CLR,,0.00,WeatherDisplay:10.37,2013-06-04 11:50:00,
2013-06-04 14:00:00,67.9,58.9,29.98,West,269,3.0,12.0,73,0.00,CLR,,0.00,WeatherDisplay:10.37,2013-06-04 12:00:00,
2013-06-04 14:10:00,67.7,59.5,29.98,West,260,6.0,12.0,75,0.00,CLR,,0.00,WeatherDisplay:10.37,2013-06-04 12:10:00,
2013-06-04 14:20:00,67.5,60.0,29.98,West,271,3.0,12.0,77,0.00,CLR,,0.00,WeatherDisplay:10.37,2013-06-04 12:20:00,
2013-06-04 14:30:00,68.5,60.3,29.98,WSW,252,5.0,10.0,75,0.00,CLR,,0.00,WeatherDisplay:10.37,2013-06-04 12:30:00,
2013-06-04 14:40:00,68.7,59.3,29.97,West,269,6.0,13.0,72,0.00,CLR,,0.00,WeatherDisplay:10.37,2013-06-04 12:40:00,
2013-06-04 14:50:00,69.2,59.4,29.97,West,266,5.0,14.0,71,0.00,CLR,,0.00,WeatherDisplay:10.37,2013-06-04 12:50:00,
2013-06-04 15:00:00,69.6,59.0,29.97,SW,233,2.0,15.0,69,0.00,CLR,,0.00,WeatherDisplay:10.37,2013-06-04 13:00:00,
2013-06-04 15:10:00,70.6,58.2,29.98,WSW,249,5.0,9.0,65,0.00,CLR,,0.00,WeatherDisplay:10.37,2013-06-04 13:10:00,
2013-06-04 15:20:00,70.2,59.1,29.97,WSW,257,5.0,12.0,68,0.00,CLR,,0.00,WeatherDisplay:10.37,2013-06-04 13:20:00,
2013-06-04 15:30:00,69.7,58.7,29.97,West,268,3.0,12.0,68,0.00,CLR,,0.00,WeatherDisplay:10.37,2013-06-04 13:30:00,
2013-06-04 15:40:00,69.8,58.3,29.98,West,274,5.0,9.0,67,0.00,CLR,,0.00,WeatherDisplay:10.37,2013-06-04 13:40:00,
2013-06-04 15:50:00,68.8,58.6,29.97,West,271,3.0,13.0,70,0.00,CLR,,0.00,WeatherDisplay:10.37,2013-06-04 13:50:00,
2013-06-04 16:00:00,68.4,58.6,29.98,West,269,6.0,9.0,71,0.00,CLR,,0.00,WeatherDisplay:10.37,2013-06-04 14:00:00,
2013-06-04 16:10:00,68.6,58.1,29.98,WNW,284,6.0,10.0,69,0.00,CLR,,0.00,WeatherDisplay:10.37,2013-06-04 14:10:00,
2013-06-04 16:20:00,68.5,57.5,29.98,WNW,292,5.0,12.0,68,0.00,CLR,,0.00,WeatherDisplay:10.37,2013-06-04 14:20:00,
2013-06-04 16:30:00,68.1,57.6,29.98,WNW,283,6.0,14.0,69,0.00,CLR,,0.00,WeatherDisplay:10.37,2013-06-04 14:30:00,
2013-06-04 16:40:00,68.2,57.6,29.98,WNW,295,8.0,13.0,69,0.00,CLR,,0.00,WeatherDisplay:10.37,2013-06-04 14:40:00,
2013-06-04 16:50:00,68.5,58.0,29.98,WNW,296,8.0,12.0,69,0.00,CLR,,0.00,WeatherDisplay:10.37,2013-06-04 14:50:00,
2013-06-04 17:00:00,68.2,56.8,29.98,NW,306,8.0,14.0,67,0.00,CLR,,0.00,WeatherDisplay:10.37,2013-06-04 15:00:00,
2013-06-04 17:10:00,67.7,57.6,29.99,NW,323,7.0,16.0,70,0.00,CLR,,0.00,WeatherDisplay:10.37,2013-06-04 15:10:00,
2013-06-04 17:20:00,67.0,56.9,29.99,NNW,339,6.0,13.0,70,0.00,CLR,,0.00,WeatherDisplay:10.37,2013-06-04 15:20:00,
2013-06-04 17:30:00,65.6,56.7,29.99,NNE,30,1.0,9.0,73,0.00,CLR,,0.00,WeatherDisplay:10.37,2013-06-04 15:30:00,
2013-06-04 17:40:00,65.0,57.6,29.99,East,83,6.0,12.0,77,0.00,CLR,,0.00,WeatherDisplay:10.37,2013-06-04 15:40:00,
2013-06-04 17:50:00,63.2,56.2,29.99,East,98,7.0,13.0,78,0.00,CLR,,0.00,WeatherDisplay:10.37,2013-06-04 15:50:00,
2013-06-04 18:00:00,63.2,55.5,29.99,ESE,114,6.0,10.0,76,0.00,CLR,,0.00,WeatherDisplay:10.37,2013-06-04 16:00:00,
2013-06-04 18:10:00,63.8,55.4,29.99,SE,128,3.0,8.0,74,0.00,CLR,,0.00,WeatherDisplay:10.37,2013-06-04 16:10:00,
2013-06-04 18:20:00,64.4,55.2,29.99,SE,127,1.0,5.0,72,0.00,CLR,,0.00,WeatherDisplay:10.37,2013-06-04 16:20:00,
2013-06-04 18:30:00,64.4,54.8,29.99,SE,126,2.0,5.0,71,0.00,CLR,,0.00,WeatherDisplay:10.37,2013-06-04 16:30:00,
2013-06-04 18:40:00,65.1,54.3,29.99,SSE,148,1.0,5.0,68,0.00,CLR,,0.00,WeatherDisplay:10.37,2013-06-04 16:40:00,
2013-06-04 18:50:00,65.0,53.8,29.99,SE,134,3.0,5.0,67,0.00,CLR,,0.00,WeatherDisplay:10.37,2013-06-04 16:50:00,
2013-06-04 19:00:00,65.3,54.1,29.99,SE,128,3.0,5.0,67,0.00,CLR,,0.00,WeatherDisplay:10.37,2013-06-04 17:00:00,
2013-06-04 19:10:00,65.6,54.7,29.99,SE,142,1.0,4.0,68,0.00,CLR,,0.00,WeatherDisplay:10.37,2013-06-04 17:10:00,
2013-06-04 19:20:00,66.3,55.8,29.99,SSE,157,1.0,3.0,69,0.00,CLR,,0.00,WeatherDisplay:10.37,2013-06-04 17:20:00,
2013-06-04 19:30:00,66.1,54.4,29.99,ESE,122,2.0,3.0,66,0.00,CLR,,0.00,WeatherDisplay:10.37,2013-06-04 17:30:00,
2013-06-04 19:40:00,64.7,53.5,30.00,ESE,119,2.0,4.0,67,0.00,CLR,,0.00,WeatherDisplay:10.37,2013-06-04 17:40:00,
2013-06-04 19:50:00,64.0,54.0,30.00,SE,131,2.0,4.0,70,0.00,CLR,,0.00,WeatherDisplay:10.37,2013-06-04 17:50:00,
2013-06-04 20:00:00,63.4,54.6,30.00,SE,127,2.0,7.0,73,0.00,CLR,,0.00,WeatherDisplay:10.37,2013-06-04 18:00:00,
2013-06-04 20:10:00,63.2,55.1,30.00,SSE,148,2.0,5.0,75,0.00,CLR,,0.00,WeatherDisplay:10.37,2013-06-04 18:10:00,
2013-06-04 20:20:00,63.0,54.9,30.00,SE,143,2.0,3.0,75,0.00,CLR,,0.00,WeatherDisplay:10.37,2013-06-04 18:20:00,
2013-06-04 20:30:00,63.2,55.9,30.00,SSE,167,2.0,3.0,77,0.00,CLR,,0.00,WeatherDisplay:10.37,2013-06-04 18:30:00,
2013-06-04 20:40:00,63.0,56.0,30.00,SE,141,0.0,3.0,78,0.00,CLR,,0.00,WeatherDisplay:10.37,2013-06-04 18:40:00,
2013-06-04 20:50:00,62.8,56.2,30.00,SSE,150,0.0,2.0,79,0.00,CLR,,0.00,WeatherDisplay:10.37,2013-06-04 18:50:00,
2013-06-04 21:00:00,62.7,56.1,30.00,SE,141,0.0,1.0,79,0.00,CLR,,0.00,WeatherDisplay:10.37,2013-06-04 19:00:00,
2013-06-04 21:10:00,62.7,56.4,30.00,SSE,158,0.0,0.0,80,0.00,CLR,,0.00,WeatherDisplay:10.37,2013-06-04 19:10:00,
2013-06-04 21:20:00,62.7,56.8,30.01,SSE,155,0.0,0.0,81,0.00,CLR,,0.00,WeatherDisplay:10.37,2013-06-04 19:20:00,
2013-06-04 21:30:00,62.5,56.6,30.01,SE,136,0.0,2.0,81,0.00,CLR,,0.00,WeatherDisplay:10.37,2013-06-04 19:30:00,
2013-06-04 21:40:00,62.4,56.5,30.01,SSW,193,0.0,2.0,81,0.00,CLR,,0.00,WeatherDisplay:10.37,2013-06-04 19:40:00,
2013-06-04 21:50:00,62.6,58.4,30.02,NNW,328,0.0,3.0,86,0.00,CLR,,0.00,WeatherDisplay:10.37,2013-06-04 19:50:00,
2013-06-04 22:00:00,62.6,58.7,30.02,WSW,252,1.0,3.0,87,0.00,CLR,,0.00,WeatherDisplay:10.37,2013-06-04 20:00:00,
2013-06-04 22:10:00,62.2,58.3,30.02,NW,315,1.0,3.0,87,0.00,CLR,,0.00,WeatherDisplay:10.37,2013-06-04 20:10:00,
2013-06-04 22:20:00,61.8,57.6,30.02,North,1,0.0,2.0,86,0.00,CLR,,0.00,WeatherDisplay:10.37,2013-06-04 20:20:00,
2013-06-04 22:30:00,61.7,57.2,30.03,NE,40,0.0,1.0,85,0.00,CLR,,0.00,WeatherDisplay:10.37,2013-06-04 20:30:00,
2013-06-04 22:40:00,61.6,57.1,30.03,ESE,108,2.0,2.0,85,0.00,CLR,,0.00,WeatherDisplay:10.37,2013-06-04 20:40:00,
2013-06-04 22:50:00,61.5,57.3,30.03,ESE,109,1.0,3.0,86,0.00,CLR,,0.00,WeatherDisplay:10.37,2013-06-04 20:50:00,
2013-06-04 23:00:00,61.5,57.3,30.03,ESE,112,2.0,3.0,86,0.00,CLR,,0.00,WeatherDisplay:10.37,2013-06-04 21:00:00,
2013-06-04 23:10:00,61.4,57.5,30.03,SE,124,1.0,2.0,87,0.00,CLR,,0.00,WeatherDisplay:10.37,2013-06-04 21:10:00,
2013-06-04 23:20:00,61.4,57.9,30.03,SSE,163,1.0,3.0,88,0.00,CLR,,0.00,WeatherDisplay:10.37,2013-06-04 21:20:00,
2013-06-04 23:30:00,61.4,58.1,30.03,SSW,198,1.0,2.0,89,0.00,CLR,,0.00,WeatherDisplay:10.37,2013-06-04 21:30:00,
2013-06-04 23:40:00,61.4,58.4,30.03,SSE,163,0.0,2.0,90,0.00,CLR,,0.00,WeatherDisplay:10.37,2013-06-04 21:40:00,